User: anonymous   Login
Location: Unspecified
(0.0000°N, 0.0000°E)
Time: 22:18:04
(UTC+00:00)
Language:

OPS 7613 P/L 1 - Orbit

View from above orbital plane
View from above orbital plane
View from above satellite
View from above satellite

Ground track
Ground track

The orbit data is extracted from the following two-line orbital elements,

1  4256U 69082B   17326.94291376 +.00000050 +00000-0 +72124-4 0  9997
2  4256 070.0096 198.1297 0020554 206.6222 153.3831 13.98275658453093
Epoch (UTC): 22 November 2017 22:37:47
Eccentricity: 0.0020554
inclination: 70.0096°
perigee height: 885 km
apogee height: 915 km
right ascension of ascending node: 198.1297°
argument of perigee: 206.6222°
revolutions per day: 13.98275658
mean anomaly at epoch: 153.3831°
orbit number at epoch: 45309

The dashed part of the orbit path shows where the satellite is in the earth's shadow,  

DLR